Hauptseite
METAR-TAF:

METAR-TAF

Flughäfen :

Bohrplattform

Hoorn-a, Niederlande

Breite: 52-55-05N, Länge: 4-09-01E, Höhe: 41 m

Beobachtung

Neuester Wetterbericht von vor 33 Minuten, um 00:25 UTC
Wind 29 kt aus Ost/Nordost
Temperatur 13°C
Luftfeuchtigkeit 58%
Luftdruck 1004 hPa
Sichtweite 10 km oder mehr

METAR: EHQE 230025Z AUTO 07029KT 9999 NSC 13/05 Q1004 W///H///

Zeit: 02:58 (00:58 UTC)


TAF: fehlend

Wetterbeobachtungen und Prognosen von mehr als 4000 Flughäfen (METAR und TAF Bericht).

Die verfügbaren Stationen werden durch gelbe und rote Markierungen auf der Karte dargestellt.

Führen Sie die Maus auf sie, um den Namen der Station zu sehen.

Darauf klicken, um die Beobachtung von Wetterbeobachtungen und Prognosen zu sehen.

Um die Karte zu ändern : klicken Sie auf den grünen Tasten mit einem schwarzen Kreuz Zum Vergrößern, auf den grünen Button mit einem Gedankenstrich zu verkleinern, oder auf die grünen Pfeile für benachbarte Karten.


METAR-TAF: